Henderson, IL

9:06 PM CST on February 01, 2015 (GMT -0600)
Galesburg Municipal | Change Station
CLOSE
Current Station
Airport
Location: Galesburg,
Elevation: 764 ft
Nearby Weather Stations
Active Advisory: Winter Storm Warning Active Notice: Local Storm Report

Elev 764 ft 40.94 °N, 90.43 °W | Updated 11 minutes ago

Snow
Snow
15 °F
Feels Like -4 °F
N
25
Wind Variable Wind from North
Gusts 31 mph

Today
High -- | Low -- °F
--% Chance of Precip.
Yesterday
High -- | Low -- °F
Precip. -- in
7:12 AM 5:18 PM
Waxing Gibbous, 97% visible
Pressure 29.96 in
Visibility 3.0 miles
Clouds Scattered Clouds 1400 ft
Mostly Cloudy 2200 ft
Overcast 4400 ft
Windchill -4 °F
Dew Point 12 °F
Humidity 88%
Rainfall 0.45 in
Snow Depth Not available.
UV 0 out of 12
Pollen .10 out of 12
Air Quality Not available.
Flu Activity Not available.
METAR KGBG 020255Z AUTO 35022G27KT 3SM -SN SCT014 BKN022 OVC044 M09/M11 A2996 RMK AO2 T10951111

More Conditions Fewer Conditions

Pressure 29.96 in
Visibility 3.0 miles
Clouds Scattered Clouds 1400 ft
Mostly Cloudy 2200 ft
Overcast 4400 ft
Windchill -4 °F
Dew Point 12 °F
Humidity 88%
Rainfall 0.45 in
Snow Depth Not available.
UV 0 out of 12
Pollen .10 out of 12
Air Quality Not available.
Flu Activity Not available.
METAR KGBG 020255Z AUTO 35022G27KT 3SM -SN SCT014 BKN022 OVC044 M09/M11 A2996 RMK AO2 T10951111

More Conditions Fewer Conditions

10-Day Weather Forecast

Almanac

Astronomy

Feb. 01, 2015 Rise Set
Actual Time
Civil Twilight
Nautical Twilight
Astronomical Twilight
Moon
Length of Visible Light
Length of Day
Tomorrow will be .
, % of the Moon is Illuminated

Today's Extremes

State Highs State Lows

Community

WunderPhotos

Upload Photos

1,792,667 photos uploaded!

WunderBlogs® & News

Nearby

Air Quality

  Air Quality AQ Index Pollutant
Not available.

Snow Depth

Station Depth Elevation

Earthquake Activity

City Distance Mag. Time & Date
Minimum magnitude displayed is 2.5.

Coastal Water Temperatures

Place Temperature

Nearby Weather Stations